Regional Weather Roundup
Issued by NWS Sioux Falls, SD

Home | Current Version | Previous Version | Graphics & Text | Print | Product List | Glossary Off
Versions: 1 2 3 4 5 6 7 8 9 10 11 12 13 14 15 16 17 18 19 20 21 22 23 24 25 26 27 28 29 30 31 32 33 34 35 36 37 38 39 40 41 42 43 44 45 46 47 48 49 50

000
ASUS43 KFSD 191410
RWRFSD

WEATHER ROUNDUP FOR SE SOUTH DAKOTA/SW MINNESOTA/NW IOWA
NATIONAL WEATHER SERVICE SIOUX FALLS SD
800 AM CST FRI JAN 19 2018

NOTE: "FAIR" INDICATES FEW OR NO CLOUDS BELOW 12,000 FEET WITH NO
SIGNIFICANT WEATHER AND OR OBSTRUCTIONS TO VISIBILITY.


SDZ038>040-050-052>070-191500-
SOUTHEAST SOUTH DAKOTA

CITY           SKY/WX    TMP DP  RH WIND       PRES   REMARKS
BROOKINGS      CLOUDY    28  25  88 SW5       29.56S WCI  23
CHAMBERLAIN    CLOUDY    38  32  79 SW10      29.53F
HURON          CLOUDY    26  25  96 SE6       29.52F WCI  19
MADISON        FAIR      27  27 100 SW6       29.55S WCI  20
MITCHELL       CLOUDY    33  29  85 SW7       29.55F WCI  27
SIOUX FALLS    CLOUDY    33  28  81 S7        29.57F WCI  27
WINNER         FAIR      46  31  55 SW12      29.54F
YANKTON        CLOUDY    31  27  85 S5        29.59F WCI  26
$$

MNZ071-072-080-081-089-090-097-098-191500-
SOUTHWEST MINNESOTA

CITY           SKY/WX    TMP DP  RH WIND       PRES   REMARKS
FAIRMONT       CLOUDY    27  23  85 S12       29.62F WCI  17
JACKSON        CLOUDY    30  25  80 S14       29.60F WCI  20
LUVERNE        CLOUDY    27  23  86 S10       29.58F WCI  17
MARSHALL       CLOUDY    35  27  72 SW16      29.52F WCI  25
MONTEVIDEO     CLOUDY    28  27  93 CALM      29.53F
PIPESTONE      CLOUDY    28  25  86 SW6       29.55S WCI  22
REDWOOD FALLS  CLOUDY    31  26  82 S12       29.54F WCI  22
WINDOM         CLOUDY    30  16  55 S7        29.59F WCI  23
WORTHINGTON    CLOUDY    31  26  82 S12       29.58F WCI  22
$$

IAZ001>003-012>014-020>022-031-032-NEZ013-014-SDZ071-191500-
NORTHWEST IOWA

CITY           SKY/WX    TMP DP  RH WIND       PRES   REMARKS
CHEROKEE       CLOUDY    29  25  84 S9        29.65F WCI  21
DENISON        CLOUDY    32  25  74 S12       29.73S WCI  23
ESTHERVILLE    CLOUDY    23  22  96 S13       29.62F WCI  11
LE MARS        CLOUDY    30  25  80 S14       29.63F WCI  20
ORANGE CITY    CLOUDY    30  27  86 S5        29.62S WCI  25
SHELDON        CLOUDY    28  27  93 S8        29.60F WCI  20
SIOUX CITY     CLOUDY    28  23  81 SE10      29.66F WCI  19
SPENCER        CLOUDY    28  23  81 S9        29.62F WCI  19
STORM LAKE     MIX PCPN  30  23  74 SW17      29.65F WCI  18
$$

ABBREVIATIONS USED IN REMARKS
   TC - TEMPERATURE IN CELSIUS
  WCI - WIND CHILL INDEX
   HX - HEAT INDEX
  VSB - VISIBILITY





USA.gov is the U.S. government's official web portal to all federal, state and local government web resources and services.